Location: Buchdorf
(48.7842°N, 10.8275°E)
Time: 07:24:52
(UTC+00:00)

STARLINK-1212 - Pass Details

Date: 09 April 2020
Orbit: 377 x 382 km, 53.0° (Epoch: 02 June)

Event Time Altitude Azimuth Distance (km) Brightness Sun altitude
Rises 19:40:25 0° 292° (WNW) 2,269 8.5 -16.0°
Reaches altitude 10° 19:42:34 10° 283° (WNW) 1,412 6.8 -16.3°
Maximum altitude 19:45:29 35° 216° (SW) 648 4.0 -16.7°
Enters shadow 19:46:11 30° 186° (S) 714 3.9 -16.8°
